Powrót do katalogu

DELTA 1 DEB

AktywnySSO
NORAD 12257·DEBRIS·🇺🇸 United States

Wystrzelony Mar 5, 1978 z Vandenberg Space Force Base

Loading…

Następne Przeloty (najbliższe 24 godziny)

TLE

ŚwieżeSource: Space-Track

Epoka: Sep 13, 2026, 20:57 UTC

1 12257U 78026DA  26256.87309378  .00000292  00000-0  20147-3 0  9996
2 12257  99.3303 215.9888 0101347  33.8299 326.9278 14.04926766328776

Śledź DELTA 1 DEB w czasie rzeczywistym z AllMySat

Download on the App Store